Ohiopyle, PA

8:29 AM EDT on September 05, 2015 (GMT -0400)
Donna's Weather | | Change Station
CLOSE
Current Station
Personal Weather Station
Location: Markleysburg, PA
Elevation: 2306 ft
Nearby Weather Stations

Elev 2306 ft 39.77 °N, 79.50 °W | Updated 7 seconds ago

Partly Cloudy
Partly Cloudy
66.6 °F
Feels Like 66.6 °F
N
0.0
Wind Variable Wind from NNW
Gusts 0.0 mph

Today
High -- | Low -- °F
--% Chance of Precip.
Yesterday
High -- | Low -- °F
Precip. -- in
6:49 AM 7:43 PM
Waning Gibbous, 49% visible
Pressure 30.31 in
Visibility 0.5 miles
Clouds Overcast 100 ft
Dew Point 65 °F
Humidity 96%
Rainfall 0.00 in
Snow Depth Not available.
UV 0 out of 12
Pollen 10.20 out of 12
Air Quality Not available.
Flu Activity Not available.
METAR K2G4 051210Z AUTO 13006KT 1/2SM FG OVC001 17/17 A3031 RMK AO1
Pressure 30.31 in
Visibility 0.5 miles
Clouds Overcast 100 ft
Dew Point 65 °F
Humidity 96%
Rainfall 0.00 in
Snow Depth Not available.
UV 0 out of 12
Pollen 10.20 out of 12
Air Quality Not available.
Flu Activity Not available.
METAR K2G4 051210Z AUTO 13006KT 1/2SM FG OVC001 17/17 A3031 RMK AO1

10-Day Weather Forecast

×

Almanac

Astronomy

Sep. 05, 2015 Rise Set
Actual Time
Civil Twilight
Nautical Twilight
Astronomical Twilight
Moon
Length of Visible Light
Length of Day
Tomorrow will be .
, % of the Moon is Illuminated

Today's Extremes

State Highs State Lows

Community

WunderPhotos

Upload Photos

1,852,455 photos uploaded!

WunderBlogs® & News

Nearby

Air Quality

  Air Quality AQ Index Pollutant
Not available.

Snow Depth

Station Depth Elevation

Earthquake Activity

City Distance Mag. Time & Date
Minimum magnitude displayed is 2.5.

Coastal Water Temperatures

Place Temperature

Stations

Nearby Weather Stations

Station Location Temp. Windchill Dew Point Humidity Wind Precip. Elev Updated Type